User: anonymous   Login
Location: Hains Lake
(37.8540°N, 99.8578°W)
Time: 05:49:51
(UTC+00:00)
Language:

Transit 2A - Orbit

View from above orbital plane
View from above orbital plane
View from above satellite
View from above satellite

Ground track
Ground track

The orbit data is extracted from the following two-line orbital elements,

1    45U 60007A   21103.20403207 -.00000030  00000-0  19218-4 0  9996
2    45  66.6942 310.9585 0247931  97.6243 265.3089 14.33714723165675
Epoch (UTC): 13 April 2021 04:53:48
Eccentricity: 0.0247931
inclination: 66.6942°
perigee height: 602 km
apogee height: 957 km
right ascension of ascending node: 310.9585°
argument of perigee: 97.6243°
revolutions per day: 14.33714723
mean anomaly at epoch: 265.3089°
orbit number at epoch: 16567

The dashed part of the orbit path shows where the satellite is in the earth's shadow,  

DLR